Torna al catalogo

SL-12 R/B(2)

AttivoHEO
NORAD 26557·ROCKET BODY·🇷🇺 Russia

Lanciato Oct 1, 2000 da Baikonur Cosmodrome

Loading…

Prossimi Passaggi (prossime 24 ore)

TLE

AggiornatoSource: Space-Track

Epoca: Sep 14, 2026, 09:27 UTC

1 26557U 00059D   26257.39398501 -.00000172  00000-0  00000-0 0  9990
2 26557  15.3765  67.3442 5081413  84.9206 334.9748  1.86636285176930

Traccia SL-12 R/B(2) in tempo reale con AllMySat

Download on the App Store